Regional Weather Roundup
Issued by NWS

Home | Current Version | Previous Version | Graphics & Text | Print | Product List | Glossary On
Versions: 1 2 3 4 5 6 7 8 9 10 11 12 13 14 15 16 17 18 19 20 21 22 23 24 25 26 27 28 29 30 31 32 33 34 35 36 37 38 39 40 41 42 43 44 45 46 47 48 49 50
000
ASUS45 KTFX 271919
RWRMT
MONTANA HOURLY WEATHER ROUNDUP
NATIONAL WEATHER SERVICE GREAT FALLS MT
1219 PM MST SAT DEC 27 2014

NOTE: "FAIR" INDICATES FEW OR NO CLOUDS BELOW 12000 FEET WITH NO
SIGNIFICANT WEATHER AND/OR OBSTRUCTIONS TO VISIBILITY.

* THESE STATIONS ARE NOT UNDER NWS QUALITY CONTROL. THEY DO NOT
   REPORT WEATHER SUCH AS PRECIPITATION OR FOG.

MTZ001>007-043-272000-
WEST OF THE DIVIDE
CITY           SKY/WX    TMP DP  RH WIND       PRES   REMARKS
KALISPELL      LGT SNOW  28  27  96 S5        30.06F VSB 3    WCI  22
MISSOULA       CLOUDY    27  23  85 SW3       30.13F
BUTTE          PTCLDY    21   9  60 CALM      30.05F
MULLAN PASS    LGT SNOW  21  18  88 VRB5      29.97F VSB 3/4  WCI  14
* ESSEX        N/A       24  21  88 NW2        N/A
* HAMILTON APT PTCLDY    30  18  61 S15       30.11F WCI  19
* LIBBY APT    PTSUNNY   27  21  78 CALM      30.09F
* LINCOLN      N/A       23  17  78 W5G11      N/A   WCI  16
* LOOKOUT PASS N/A       24  21  88 S1G8       N/A
* POLSON       N/A       28  26  92 SW1        N/A
* RONAN APT    PTSUNNY   28  27  96 SW6        N/A   WCI  21
* SEELEY LAKE  N/A       26  21  81 N/A        N/A
* THOMP F APT  PTCLDY    11   7  84 E5G10      N/A   WCI   2
$$

MTZ008-052>055-272000-
SOUTHWEST MONTANA
CITY           SKY/WX    TMP DP  RH WIND       PRES   REMARKS
BOZEMAN        CLOUDY    21  19  92 VRB3      30.10F
DILLON         PTSUNNY   19   9  65 SW20      30.08F WCI   3
* W YELLOWSTON PTSUNNY   10   5  80 W1         N/A
* THREE FORKS  PTSUNNY   25  25 100 SW21G26    N/A   WCI  10
* BOULDER HILL N/A       19   7  59 SW16       N/A   WCI   4
* MONIDA PASS  N/A        9   7  91 SE14G19    N/A   WCI  -7
* RAYNOLDS PAS N/A       11  -2  55 S9         N/A   WCI  -2
* WHITEHALL    N/A       24   9  53 SW18G31    N/A   WCI  10
* WISE RIVER   N/A       23   8  52 NW11G16    N/A   WCI  12
$$

MTZ009>010-012-014-046-048-049-054-272000-
EAST SLOPES AND CENTRAL MONTANA
CITY           SKY/WX    TMP DP  RH WIND       PRES   REMARKS
CUT BANK       SUNNY     28  18  66 W22       29.90F WCI  14
GREAT FALLS    PTSUNNY   28  19  69 SW22G29   29.95F WCI  14
HELENA         CLOUDY    25  18  75 E6        30.06F WCI  18
MALMSTROM AFB  PTCLDY    28  19  69 SW20G28   29.98F WCI  15
* CONRAD       PTCLDY    27  19  72 W6         N/A   WCI  20
* DEARBORN     N/A       30  16  56 S8G15      N/A   WCI  22
* EAST GLACIER N/A       23  16  74 W24G32     N/A   WCI   7
* MONARCH      N/A       22  10  60 SW12G19    N/A   WCI  10
* PENDROY      N/A       31  13  47 W5         N/A   WCI  26
* ROGERS PASS  N/A       20  14  77 SE16G27    N/A   WCI   6
* SWEET GRASS  N/A       27  15  61 W12G17     N/A   WCI  16
* WHITE SULPH  N/A       26  14  60 S2G17      N/A
$$

MTZ011-013-016-021-035-040-045-047-050-051-272000-
NORTH CENTRAL MONTANA
CITY           SKY/WX    TMP DP  RH WIND       PRES   REMARKS
HAVRE          PTSUNNY   28  19  69 SW18      29.96F WCI  15
LEWISTOWN      CLOUDY    27  18  69 SW12      29.95F WCI  16
* N BAR RANCH  CLOUDY    27  12  53 VRB7      29.95F WCI  19
* CHINOOK      PTCLDY    32  18  56 CALM      29.97F
* CHESTER      N/A       25  18  75 SW2        N/A
* DENTON       N/A       28  16  61 SW7        N/A   WCI  21
* JUDITH GAP   N/A       23  13  65 SW19G24    N/A   WCI   9
* LOMA         N/A       31  21  66 SW11G17    N/A   WCI  22
$$

MTZ017>020-022>027-061-062-272000-
NORTHEAST MONTANA
CITY           SKY/WX    TMP DP  RH WIND       PRES   REMARKS
GLASGOW        CLOUDY    25  18  75 SW6       29.99F WCI  18
GLENDIVE       PTSUNNY   28  16  61 W12       30.01F WCI  18
SIDNEY         PTSUNNY   27  18  69 W14       30.01F WCI  16
WOLF POINT     PTSUNNY   25  18  75 W9        30.01F WCI  16
* BEAVER HILL  N/A       22  15  74 SW13G18    N/A   WCI  10
* CIRCLE       N/A       26  20  78 W4G9       N/A
* LINDSAY DVD  N/A       23  15  71 W14G19     N/A   WCI  10
* NAVAJO       N/A       20  14  77 W10        N/A   WCI   9
* PLENTYWOOD A PTSUNNY   19  14  81 W6        29.95F WCI  11
* POPLAR APT   PTCLDY   N/A N/A N/A SW13      30.00F
* SACO         N/A       27  18  69 S4         N/A
$$

MTZ028>042-056>058-272000-
SOUTHCENTRAL AND SOUTHEAST MONTANA
CITY           SKY/WX    TMP DP  RH WIND       PRES   REMARKS
BAKER          PTSUNNY   25  16  69 W16       30.01F WCI  12
BILLINGS       PTSUNNY   21  14  74 SW18      30.03F WCI   6
LIVINGSTON     PTSUNNY   25  10  53 SW35G53   30.00F WCI   7
MILES CITY     CLOUDY    25  18  75 W13       30.04F WCI  13
* BIG TIMBER A PTSUNNY   23  10  57 W26G36    29.99F WCI   6
* FORSYTH APT  CLOUDY    27  18  69 W10       30.04F WCI  18
* LAUREL APT   PTSUNNY   21   9  60 S8         N/A   WCI  11
* ROUNDUP APT  PTSUNNY   27  14  58 SW6        N/A   WCI  20
* ALZADA       N/A       28  16  61 SW9        N/A   WCI  19
* HYSHAM       N/A       24  14  66 W10        N/A   WCI  14
* REED POINT   N/A       19  14  81 SE5        N/A   WCI  12
* ROSCOE HILL  N/A       20   1  43 E7         N/A   WCI  11
$$

REGIONAL REPORTS...DAKOTAS
CITY           SKY/WX    TMP DP  RH WIND       PRES   REMARKS
WILLISTON      CLOUDY    25  16  69 W8        29.99F WCI  16
DICKINSON      PTSUNNY   25  16  69 W21       29.95F WCI  10
BEACH          PTCLDY    23  18  81 W16       30.00S WCI  10
CROSBY         CLOUDY    25  18  75 NW14      29.96F WCI  13
TIOGA          PTCLDY    21  18  88 W14       29.96F WCI   8
WATFORD CITY   SUNNY     23  16  74 W15G21    29.96F WCI  10
BISMARCK       CLOUDY    27  19  72 W9        30.01F WCI  18
GRAND FORKS    CLOUDY    16  10  77 SW3       30.03F
FARGO          CLOUDY    19  12  74 SW10      30.05F WCI   8
BUFFALO SD     PTCLDY    28  16  61 W20       29.93F WCI  15
RAPID CITY     SUNNY     19  10  68 SE6       30.06F WCI  11
$$

REGIONAL REPORTS...WYOMING/IDAHO/WASHINGTON
CITY           SKY/WX    TMP DP  RH WIND       PRES   REMARKS
GILLETTE       PTCLDY    21  10  62 SW8       30.01F WCI  11
SHERIDAN       CLOUDY    16   9  74 CALM      30.03F
CODY           CLOUDY    27   7  42 W12G24    29.99F WCI  16
YELLOWSTONE LA PTCLDY    10   5  80 VRB6      30.09F
SALMON         PTSUNNY   21   7  55 W9        30.20F WCI  11
MULLAN PASS    LGT SNOW  21  18  88 VRB5      29.97S VSB 3/4  WCI  14
SAND POINT     LGT SNOW  32  32 100 S3        30.12F VSB 1 3/4
SPOKANE        LGT SNOW  32  30  92 S6        30.09F VSB 1    WCI  26
$$

REGIONAL REPORTS...ALBERTA
CITY           SKY/WX    TMP DP  RH WIND       PRES   REMARKS
CALGARY        PTSUNNY   27  14  58 VRB2      29.86F
LETHBRIDGE     PTCLDY    32  19  59 W17G24    29.91F WCI  21
MEDICINE HAT   CLOUDY    28  21  75 SW9       29.93F WCI  19
EDMONTON       PTSUNNY   16  12  84 N5        29.91F WCI   8
WATERTON GATE  N/A       28  18  66 SW22G31    N/A   WCI  14
CARDSTON       N/A       30  18  61 W10        N/A   WCI  21
MILK RIVER     N/A       28  18  66 W8         N/A   WCI  20
$$

REGIONAL REPORTS...SASKATCHEWAN
CITY           SKY/WX    TMP DP  RH WIND       PRES   REMARKS
SWIFT CURRENT  CLOUDY    21  18  88 W8        29.90F WCI  11
REGINA         LGT SNOW  14  10  84 N8        29.99S VSB 1 1/2 WCI   3
VAL MARIE      N/A       21  18  88 S8         N/A   WCI  11
ASSINIBOIA     N/A       21  14  74 W6         N/A   WCI  13

$$



USA.gov is the U.S. government's official web portal to all federal, state and local government web resources and services.